📊 Raw Sensor Data
Showing records 52851 to 52875 of 85,315 total
| ID | Distance (ft) | Battery V | Battery A | Int Temp (°F) | Int Humid (%) | Ext Temp (°F) | Solar V | RSSI | SNR | Time Stamp |
|---|---|---|---|---|---|---|---|---|---|---|
| 32477 | 12.6 | 3.61 | -5 | 47 | 40 | 50 | 0.10 | -81 | 8 | 02/15/2025 07:00 PM |
| 32476 | 12.6 | 3.56 | -5 | 48 | 40 | 49 | 0.00 | -80 | 8 | 02/15/2025 06:45 PM |
| 32475 | 12.6 | 3.57 | -5 | 49 | 40 | 50 | 0.00 | -80 | 8 | 02/15/2025 06:30 PM |
| 32474 | 12.6 | 3.57 | -5 | 50 | 40 | 52 | 0.10 | -80 | 8 | 02/15/2025 06:15 PM |
| 32473 | 12.6 | 3.58 | -5 | 51 | 41 | 52 | 0.60 | -80 | 8 | 02/15/2025 06:00 PM |
| 32472 | 12.6 | 3.60 | -5 | 53 | 41 | 52 | 1.50 | -80 | 7 | 02/15/2025 05:45 PM |
| 32471 | 12.6 | 3.64 | 0 | 54 | 40 | 54 | 4.50 | -79 | 8 | 02/15/2025 05:30 PM |
| 32470 | 12.6 | 3.82 | 0 | 56 | 40 | 55 | 4.50 | -79 | 8 | 02/15/2025 05:15 PM |
| 32469 | 12.6 | 4.11 | 7 | 57 | 41 | 56 | 4.50 | -78 | 8 | 02/15/2025 05:00 PM |
| 32468 | 12.7 | 3.86 | 22 | 59 | 41 | 57 | 4.50 | -78 | 9 | 02/15/2025 04:45 PM |
| 32467 | 12.7 | 3.77 | 0 | 62 | 40 | 59 | 5.10 | -77 | 7 | 02/15/2025 04:30 PM |
| 32466 | 12.7 | 3.77 | 0 | 63 | 40 | 59 | 5.10 | -78 | 7 | 02/15/2025 04:15 PM |
| 32465 | 12.7 | 3.77 | 0 | 66 | 40 | 60 | 5.10 | -77 | 8 | 02/15/2025 04:00 PM |
| 32464 | 12.7 | 4.05 | 0 | 68 | 40 | 59 | 5.10 | -77 | 8 | 02/15/2025 03:45 PM |
| 32463 | 12.8 | 3.78 | 0 | 77 | 34 | 60 | 5.10 | -77 | 8 | 02/15/2025 03:30 PM |
| 32462 | 12.9 | 3.78 | 0 | 77 | 33 | 63 | 5.10 | -78 | 7 | 02/15/2025 03:15 PM |
| 32461 | 12.9 | 3.77 | 0 | 75 | 34 | 63 | 5.10 | -77 | 8 | 02/15/2025 03:00 PM |
| 32460 | 12.8 | 3.77 | 0 | 72 | 35 | 63 | 5.10 | -78 | 8 | 02/15/2025 02:45 PM |
| 32459 | 12.8 | 3.77 | 0 | 68 | 36 | 62 | 5.10 | -78 | 7 | 02/15/2025 02:30 PM |
| 32458 | 12.8 | 3.86 | 0 | 67 | 37 | 58 | 5.10 | -78 | 8 | 02/15/2025 02:15 PM |
| 32457 | 12.8 | 4.06 | 0 | 70 | 35 | 58 | 5.10 | -78 | 7 | 02/15/2025 02:00 PM |
| 32456 | 12.8 | 4.01 | 0 | 72 | 33 | 60 | 5.10 | -79 | 7 | 02/15/2025 01:45 PM |
| 32455 | 12.8 | 3.77 | 0 | 69 | 34 | 60 | 5.10 | -79 | 8 | 02/15/2025 01:30 PM |
| 32454 | 12.8 | 3.77 | 0 | 66 | 35 | 57 | 5.10 | -79 | 8 | 02/15/2025 01:15 PM |
| 32453 | 12.8 | 3.77 | 0 | 63 | 36 | 55 | 5.10 | -79 | 8 | 02/15/2025 01:00 PM |